Tracking 26935 objects as of 5-Feb-2023
HD Live streaming from Space Station
objects crossing your sky now

SANOSAT-1 (NO-116)

Track SANOSAT-1 (NO-116) now!
10-day predictions
SANOSAT-1 (NO-116) is classified as:


NORAD ID: 51031
Int'l Code: 2022-002AZ
Perigee: 498.0 km
Apogee: 513.3 km
Inclination: 97.5 °
Period: 94.6 minutes
Semi major axis: 6876 km
RCS: Unknown
Launch date: January 13, 2022
Source: Spain (SPN)
Launch site: AIR FORCE EASTERN TEST RANGE (AFETR)

Uplink (MHz):
Downlink (MHz): 436.235
Beacon (MHz): 436.235
Mode: 500bps GFSK RTTY CW
Call sign: AM9NPQ
Status: Active

Your satellite tracking list
Your tracking list is empty




NASA's NSSDC Master Catalog

Two Line Element Set (TLE):
1 51031U 22002AZ  23035.15132045  .00023936  00000-0  10341-2 0  9994
2 51031  97.4656 105.1074 0011188 340.2697  19.8105 15.22429308 58594
Source of the keplerian elements: AMSAT